• In France
  • List of Countries
  • For 7 days
  • Water Temperature
  • Satellite Maps
  • Weather Map
  • Weather Widgets
  • user-avatar
    Login

    Hourly Weather Oran

    Today, 24 September, Monday

    Time Temperature Precipitation Wind Pressure Humidity
    00:00 +30°C° 0 mm 2 mps 754 mmHg 42%
    01:00 +29°C° 0 mm 2 mps 754 mmHg 43%
    02:00 +29°C° 0 mm 2 mps 754 mmHg 43%
    03:00 +28°C° 0 mm 2 mps 754 mmHg 44%
    04:00 +28°C° 0 mm 2 mps 754 mmHg 45%
    05:00 +28°C° 0 mm 2 mps 754 mmHg 45%
    06:00 +27°C° 0 mm 2 mps 754 mmHg 43%
    07:00 +29°C° 0 mm 2 mps 754 mmHg 39%
    08:00 +31°C° 0 mm 2 mps 754 mmHg 34%
    09:00 +34°C° 0 mm 2 mps 754 mmHg 30%
    10:00 +35°C° 0 mm 3 mps 754 mmHg 28%
    11:00 +36°C° 0 mm 3 mps 754 mmHg 26%
    12:00 +37°C° 0 mm 4 mps 754 mmHg 24%
    13:00 +37°C° 0 mm 4 mps 754 mmHg 24%
    14:00 +37°C° 0 mm 5 mps 754 mmHg 24%
    15:00 +38°C° 0 mm 6 mps 753 mmHg 24%
    16:00 +36°C° 0 mm 5 mps 753 mmHg 28%
    17:00 +35°C° 0 mm 5 mps 753 mmHg 32%
    18:00 +33°C° 0 mm 5 mps 753 mmHg 37%
    19:00 +33°C° 0 mm 5 mps 754 mmHg 41%
    20:00 +32°C° 0 mm 4 mps 754 mmHg 44%
    21:00 +30°C° 0 mm 4 mps 754 mmHg 48%
    22:00 +30°C° 0 mm 4 mps 754 mmHg 51%
    23:00 +29°C° 0 mm 3 mps 754 mmHg 54%

    Tomorrow, 25 September, Tuesday

    Time Temperature Precipitation Wind Pressure Humidity
    00:00 +29°C° 0 mm 3 mps 754 mmHg 56%
    01:00 +28°C° 0 mm 3 mps 754 mmHg 58%
    02:00 +28°C° 0 mm 3 mps 754 mmHg 59%
    03:00 +27°C° 0 mm 3 mps 754 mmHg 61%
    04:00 +27°C° 0 mm 3 mps 754 mmHg 63%
    05:00 +27°C° 0 mm 3 mps 754 mmHg 65%
    06:00 +26°C° 0 mm 3 mps 754 mmHg 68%
    07:00 +28°C° 0 mm 3 mps 754 mmHg 62%
    08:00 +29°C° 0 mm 3 mps 755 mmHg 56%
    09:00 +30°C° 0 mm 3 mps 755 mmHg 50%
    10:00 +32°C° 0 mm 4 mps 755 mmHg 45%
    11:00 +34°C° 0 mm 4 mps 755 mmHg 41%
    12:00 +35°C° 0 mm 5 mps 755 mmHg 37%
    13:00 +35°C° 0 mm 6 mps 754 mmHg 37%
    14:00 +35°C° 0 mm 6 mps 754 mmHg 37%
    15:00 +35°C° 0 mm 7 mps 754 mmHg 36%
    16:00 +34°C° 0 mm 7 mps 754 mmHg 41%
    17:00 +33°C° 0 mm 8 mps 754 mmHg 46%
    18:00 +32°C° 0 mm 8 mps 754 mmHg 51%
    19:00 +31°C° 0 mm 8 mps 755 mmHg 54%
    20:00 +31°C° 0 mm 8 mps 755 mmHg 57%
    21:00 +29°C° 0 mm 8 mps 756 mmHg 59%
    22:00 +29°C° 0 mm 8 mps 756 mmHg 60%
    23:00 +28°C° 0 mm 7 mps 756 mmHg 61%

    Day after tomorrow, 26 September, Wednesday

    Time Temperature Precipitation Wind Pressure Humidity
    00:00 +28°C° 0 mm 7 mps 756 mmHg 62%
    01:00 +27°C° 0 mm 7 mps 756 mmHg 63%
    02:00 +27°C° 0 mm 7 mps 756 mmHg 64%
    03:00 +27°C° 0 mm 7 mps 756 mmHg 65%
    04:00 +26°C° 0 mm 7 mps 756 mmHg 66%
    05:00 +26°C° 0 mm 6 mps 756 mmHg 68%
    06:00 +26°C° 0 mm 6 mps 756 mmHg 69%
    07:00 +27°C° 0 mm 6 mps 756 mmHg 65%
    08:00 +28°C° 0 mm 6 mps 757 mmHg 61%
    09:00 +28°C° 0 mm 6 mps 757 mmHg 56%
    10:00 +29°C° 0 mm 6 mps 757 mmHg 52%
    11:00 +32°C° 0 mm 6 mps 757 mmHg 48%
    12:00 +33°C° 0 mm 7 mps 757 mmHg 44%
    13:00 +32°C° 0 mm 7 mps 756 mmHg 46%
    14:00 +32°C° 0 mm 7 mps 756 mmHg 48%
    15:00 +32°C° 0 mm 8 mps 756 mmHg 49%
    16:00 +30°C° 0 mm 7 mps 756 mmHg 54%
    17:00 +29°C° 0 mm 7 mps 756 mmHg 59%
    18:00 +28°C° 0 mm 6 mps 756 mmHg 63%
    19:00 +28°C° 0 mm 6 mps 757 mmHg 66%
    20:00 +27°C° 0 mm 5 mps 757 mmHg 68%
    21:00 +27°C° 0 mm 5 mps 757 mmHg 71%
    22:00 +26°C° 0 mm 4 mps 757 mmHg 73%
    23:00 +26°C° 0 mm 4 mps 757 mmHg 75%

    27 September, Thursday

    Time Temperature Precipitation Wind Pressure Humidity
    00:00 +26°C° 0 mm 4 mps 757 mmHg 78%
    01:00 +25°C° 0 mm 4 mps 757 mmHg 79%
    02:00 +25°C° 0 mm 3 mps 757 mmHg 81%
    03:00 +25°C° 0 mm 3 mps 757 mmHg 82%
    04:00 +25°C° 0 mm 3 mps 757 mmHg 83%
    05:00 +24°C° 0 mm 2 mps 757 mmHg 84%
    06:00 +24°C° 0 mm 2 mps 757 mmHg 85%
    07:00 +25°C° 0 mm 2 mps 757 mmHg 79%
    08:00 +26°C° 0 mm 2 mps 757 mmHg 73%
    09:00 +27°C° 0 mm 1 mps 758 mmHg 67%
    10:00 +28°C° 0 mm 2 mps 757 mmHg 61%
    11:00 +29°C° 0 mm 2 mps 757 mmHg 54%
    12:00 +31°C° 0 mm 2 mps 757 mmHg 48%
    13:00 +31°C° 0 mm 3 mps 756 mmHg 46%
    14:00 +33°C° 0 mm 4 mps 756 mmHg 45%
    15:00 +33°C° 0 mm 4 mps 755 mmHg 43%
    16:00 +32°C° 0 mm 5 mps 755 mmHg 49%
    17:00 +30°C° 0 mm 5 mps 755 mmHg 54%
    18:00 +29°C° 0 mm 5 mps 755 mmHg 59%
    19:00 +29°C° 0.1 mm 5 mps 756 mmHg 61%
    20:00 +29°C° 0.1 mm 4 mps 756 mmHg 64%
    21:00 +28°C° 0.1 mm 4 mps 756 mmHg 66%
    22:00 +28°C° 0.2 mm 4 mps 756 mmHg 68%
    23:00 +28°C° 0.2 mm 3 mps 756 mmHg 69%

    28 September, Friday

    Time Temperature Precipitation Wind Pressure Humidity
    00:00 +28°C° 0.2 mm 3 mps 755 mmHg 71%
    01:00 +27°C° 0.2 mm 3 mps 755 mmHg 72%
    02:00 +27°C° 0.2 mm 3 mps 755 mmHg 73%
    03:00 +27°C° 0.2 mm 3 mps 754 mmHg 75%
    04:00 +27°C° 0.2 mm 3 mps 754 mmHg 75%
    05:00 +27°C° 0.2 mm 3 mps 754 mmHg 74%
    06:00 +26°C° 0.2 mm 3 mps 754 mmHg 74%
    07:00 +28°C° 0.1 mm 3 mps 755 mmHg 67%
    08:00 +29°C° 0.1 mm 3 mps 755 mmHg 60%
    09:00 +30°C° 0.1 mm 3 mps 755 mmHg 54%
    10:00 +31°C° 0 mm 3 mps 755 mmHg 49%
    11:00 +33°C° 0 mm 3 mps 754 mmHg 44%
    12:00 +34°C° 0 mm 4 mps 754 mmHg 39%
    13:00 +34°C° 0 mm 4 mps 754 mmHg 40%
    14:00 +34°C° 0 mm 5 mps 753 mmHg 40%
    15:00 +34°C° 0 mm 6 mps 752 mmHg 41%
    16:00 +33°C° 0 mm 6 mps 752 mmHg 45%
    17:00 +32°C° 0 mm 6 mps 752 mmHg 50%
    18:00 +30°C° 0 mm 5 mps 752 mmHg 54%
    19:00 +30°C° 0 mm 5 mps 753 mmHg 56%
    20:00 +29°C° 0 mm 4 mps 753 mmHg 58%
    21:00 +29°C° 0 mm 4 mps 753 mmHg 60%
    22:00 +29°C° 0 mm 3 mps 753 mmHg 61%
    23:00 +28°C° 0 mm 3 mps 752 mmHg 62%

    29 September, Saturday

    Time Temperature Precipitation Wind Pressure Humidity
    00:00 +28°C° 0 mm 3 mps 752 mmHg 63%
    01:00 +28°C° 0 mm 3 mps 752 mmHg 64%
    02:00 +28°C° 0 mm 3 mps 752 mmHg 65%
    03:00 +27°C° 0 mm 3 mps 751 mmHg 66%
    04:00 +27°C° 0 mm 3 mps 751 mmHg 67%
    05:00 +27°C° 0 mm 3 mps 751 mmHg 68%
    06:00 +26°C° 0 mm 3 mps 751 mmHg 68%
    07:00 +28°C° 0 mm 3 mps 752 mmHg 61%
    08:00 +29°C° 0 mm 3 mps 752 mmHg 54%
    09:00 +30°C° 0 mm 3 mps 752 mmHg 47%
    10:00 +33°C° 0 mm 3 mps 752 mmHg 43%
    11:00 +34°C° 0 mm 4 mps 752 mmHg 38%
    12:00 +35°C° 0 mm 4 mps 751 mmHg 34%
    13:00 +35°C° 0 mm 4 mps 751 mmHg 34%
    14:00 +35°C° 0 mm 5 mps 751 mmHg 35%
    15:00 +35°C° 0 mm 6 mps 750 mmHg 36%
    16:00 +34°C° 0 mm 5 mps 750 mmHg 41%
    17:00 +33°C° 0 mm 5 mps 750 mmHg 45%
    18:00 +32°C° 0 mm 5 mps 750 mmHg 49%
    19:00 +32°C° 0 mm 4 mps 751 mmHg 50%
    20:00 +30°C° 0 mm 4 mps 751 mmHg 52%
    21:00 +30°C° 0 mm 3 mps 751 mmHg 53%
    22:00 +29°C° 0 mm 3 mps 751 mmHg 54%
    23:00 +29°C° 0 mm 3 mps 751 mmHg 55%
    Show more